Olympia, WA
on Thursday, November 15, 2012

Thursday
Previous Day Next Day
Daily Summary
 ActualAverageRecord
Temperature
Mean Temperature °F 43°F  
Max Temperature 46°F 50°F 63°F (2001)
Min Temperature 35°F 37°F -1°F (1955)
Degree Days
Heating Degree Days 24 22  
Month to date heating degree days 281 300  
Since 1 July heating degree days 1059 1094  
Cooling Degree Days 0 0  
Month to date cooling degree days 0 0  
Year to date cooling degree days 82 106  
Moisture
Dew Point 40°F   
Average Humidity 92    
Maximum Humidity 100    
Minimum Humidity 83    
Precipitation
Precipitation 0.00 in 0.30 in 1.35 in (1973)
Month to date precipitation 2.36 4.07  
Year to date precipitation 43.06 37.98  
Wind
Wind Speed 3 mph   
Max Wind Speed 10 mph   
Max Gust Speed 13 mph   
Visibility 4 miles   
Events Fog   

Key: T is trace of precipitation, MM is missing value
Source: NWS Daily Summary
Time(PST)TemperatureDew PointHumidity Pressure Visibility Wind DirectionWind SpeedGust SpeedPrecipitationEvents Conditions
12:16 AM 35.6°F 35.6°F 100% 30.26 in 0.2 miles North 3.5 mph - N/A Fog Fog
12:54 AM 37.0°F 37.0°F 100% 30.26 in 0.2 miles Calm Calm - 0.00 in Fog Fog
1:54 AM 37.9°F 37.9°F 100% 30.24 in 0.2 miles ESE 3.5 mph - N/A Fog Fog
2:54 AM 41.0°F 41.0°F 100% 30.22 in 0.2 miles NNE 4.6 mph - N/A Fog Fog
3:14 AM 42.8°F 42.8°F 100% 30.21 in 0.8 miles NE 3.5 mph - N/A   Mist
3:21 AM 42.8°F 42.8°F 100% 30.21 in 1.5 miles NE 3.5 mph - N/A   Overcast
3:31 AM 42.8°F 42.8°F 100% 30.21 in 2.5 miles Calm Calm - N/A   Overcast
3:37 AM 39.2°F 39.2°F 100% 30.20 in 1.2 miles Calm Calm - N/A   Overcast
3:54 AM 39.0°F 39.0°F 100% 30.20 in 1.0 miles East 3.5 mph - N/A   Overcast
4:01 AM 39.2°F 39.2°F 100% 30.20 in 2.0 miles East 3.5 mph - N/A   Overcast
4:14 AM 41.0°F 39.2°F 93% 30.19 in 3.0 miles NE 3.5 mph - N/A   Overcast
4:41 AM 42.8°F 41.0°F 93% 30.18 in 4.0 miles East 4.6 mph - N/A   Overcast
4:54 AM 39.9°F 39.9°F 100% 30.19 in 4.0 miles East 4.6 mph - N/A   Overcast
5:54 AM 41.0°F 39.9°F 96% 30.17 in 4.0 miles ENE 3.5 mph - N/A   Overcast
6:35 AM 41.0°F 39.2°F 93% 30.15 in 4.0 miles NNE 3.5 mph - N/A   Overcast
6:54 AM 41.0°F 41.0°F 100% 30.15 in 2.5 miles North 5.8 mph - N/A   Overcast
7:06 AM 42.8°F 41.0°F 93% 30.15 in 4.0 miles North 8.1 mph - N/A   Overcast
7:24 AM 42.8°F 41.0°F 93% 30.14 in 7.0 miles NNE 6.9 mph - N/A   Overcast
7:44 AM 42.8°F 41.0°F 93% 30.14 in 6.0 miles North 6.9 mph - N/A   Overcast
7:54 AM 43.0°F 41.0°F 93% 30.14 in 7.0 miles North 6.9 mph - N/A   Overcast
8:33 AM 42.8°F 41.0°F 93% 30.13 in 8.0 miles North 6.9 mph - N/A   Overcast
8:54 AM 43.0°F 41.0°F 93% 30.12 in 8.0 miles North 8.1 mph - N/A   Overcast
9:54 AM 43.0°F 42.1°F 97% 30.11 in 5.0 miles East 3.5 mph - N/A   Overcast
10:54 AM 44.1°F 39.9°F 85% 30.09 in 10.0 miles NNE 4.6 mph - N/A   Overcast
11:54 AM 44.1°F 41.0°F 89% 30.06 in 9.0 miles Calm Calm - N/A   Overcast
12:16 PM 44.6°F 39.2°F 81% 30.05 in 10.0 miles Calm Calm - N/A   Overcast
12:54 PM 45.0°F 39.9°F 82% 30.04 in 10.0 miles Calm Calm - N/A   Overcast
1:54 PM 45.0°F 39.9°F 82% 30.03 in 10.0 miles SSE 3.5 mph - N/A   Overcast
2:54 PM 45.0°F 39.9°F 82% 30.02 in 10.0 miles South 3.5 mph - N/A   Overcast
3:54 PM 44.1°F 39.9°F 85% 30.01 in 7.0 miles SSE 3.5 mph - N/A   Overcast
4:37 PM 42.8°F 39.2°F 87% 30.00 in 7.0 miles Calm Calm - N/A   Overcast
4:54 PM 43.0°F 39.9°F 89% 30.00 in 8.0 miles ESE 3.5 mph - N/A   Overcast
5:54 PM 42.1°F 39.9°F 92% 30.00 in 8.0 miles Calm Calm - N/A   Overcast
6:36 PM 41.0°F 39.2°F 93% 29.99 in 6.0 miles ESE 3.5 mph - N/A   Overcast
6:54 PM 41.0°F 39.0°F 93% 29.99 in 5.0 miles SE 3.5 mph - N/A   Overcast
7:34 PM 39.2°F 39.2°F 100% 29.98 in 3.0 miles ESE 4.6 mph - N/A   Overcast
7:54 PM 39.9°F 39.0°F 97% 29.98 in 2.5 miles East 3.5 mph - N/A   Overcast
8:10 PM 39.2°F 39.2°F 100% 29.97 in 1.5 miles Calm Calm - N/A   Overcast
8:23 PM 39.2°F 39.2°F 100% 29.97 in 1.2 miles Calm Calm - N/A   Overcast
8:54 PM 39.0°F 39.0°F 100% 29.98 in 0.8 miles Calm Calm - N/A   Mist
9:20 PM 39.2°F 39.2°F 100% 29.97 in 0.2 miles Calm Calm - N/A Fog Fog
9:54 PM 39.0°F 39.0°F 100% 29.97 in 0.5 miles Calm Calm - N/A Fog Fog
10:32 PM 37.4°F 37.4°F 100% 29.96 in 0.2 miles SSE 3.5 mph - N/A Fog Fog
10:54 PM 37.9°F 37.9°F 100% 29.96 in 0.2 miles Calm Calm - N/A Fog Fog
11:54 PM 37.9°F 37.9°F 100% 29.96 in 0.2 miles Calm Calm - N/A Fog Fog
Moon Phase
Nov. 15 Nov. 20 Nov. 28 Dec. 06 Dec. 13
Sunrise:07:15 AM (PST) Moon Rise:09:21 AM (PST)11/15
Sunset:04:36 PM (PST) Moon Set:06:29 PM (PST)11/15

Copyright © 2014 The Weather Underground, Inc.